Location: Montr�al
(45.5000°N, 73.5830°W)
Time: 09:43:49
(UTC-04:00)

ISS - Visible Passes

Search period start: 29 March 2015 00:00
Search period end: 08 April 2015 00:00
Orbit: 396 x 406 km, 51.6° (Epoch: 29 March)

Date Brightness Start Highest point End Pass type
(mag) Time Alt. Az. Time Alt. Az. Time Alt. Az.
29 Mar -3.3 04:53:34 53° NW 04:54:11 74° NNE 04:57:25 10° ESE visible
30 Mar -0.8 04:02:46 19° E 04:02:46 19° E 04:03:53 10° E visible
30 Mar -2.5 05:35:23 19° W 05:37:03 31° SW 05:39:57 10° SSE visible
31 Mar -2.3 04:44:49 35° SSE 04:44:49 35° SSE 04:46:54 10° SE visible
01 Apr -1.4 05:27:10 14° SSW 05:27:10 14° SSW 05:28:20 10° S visible
03 Apr -1.5 20:18:02 10° SSE 20:19:49 14° SE 20:20:03 14° SE visible
03 Apr -0.4 21:52:34 10° WSW 21:52:43 11° WSW 21:52:43 11° WSW visible
04 Apr -3.2 20:59:08 10° SW 21:02:18 51° SE 21:02:32 50° SE visible
05 Apr -2.3 20:05:59 10° SSW 20:08:50 28° SE 20:11:43 10° ENE visible
05 Apr -2.3 21:41:54 10° W 21:44:38 46° NW 21:44:38 46° NW visible
06 Apr -3.3 20:48:10 10° WSW 20:51:27 81° NNW 20:53:48 17° ENE visible
06 Apr -0.5 22:25:15 10° WNW 22:26:24 18° WNW 22:26:24 18° WNW visible
07 Apr -1.8 21:31:19 10° W 21:34:21 35° NNW 21:35:19 28° NNE visible
